星链-36339(STARLINK-36339)

导读

STARLINK-36339是美国SpaceX星链星座中的一颗卫星,于2026年1月9日发射升空。星链项目旨在构建全球卫星互联网通信系统,为全球偏远地区、海洋空域等场景提供低成本高速互联网接入。作为星链低轨星座组网卫星,该卫星延续星链标准设计,运行在近地轨道,支撑星座的覆盖密度与服务能力扩容,推动全球宽带网络服务覆盖进一步完善。

基本信息
目录编号:
67340
目录名称:
STARLINK-36339
国际标识:
2026-003G
轨道中心:
EARTH
卫星名称:
星链-36339
卫星全名:
星链-36339(STARLINK-36339)
卫星状态:
在轨 (已飞行238 天)
发射日期:
2026-01-09 UTC
国别 :
美国 (US)
星等 :
--
轨道信息
数据来源 国际轨道数据
星历时间: 2026-09-04T12:37:28+0800
11小时前
查看轨道信息
半长轴: 6861.157km
偏心率: 0.0001188
轨道倾角: 43.001°
近地点辐角 262.310°
升交点赤经 298.975°
平近点角 97.761°
近地点: 482.204km
远地点: 483.836km
周期: 94.266分钟
每日圈数: 15.2759
详细信息
固有亮度:
5
最大亮度:
2.5
卫星平台:
Starlink V1.0
覆盖范围:
全球
运营商:
太空探索技术公司
运营商所在国:
美国
制造商(研发单位):
太空探索技术公司
制造商所在国:
美国
使用方式:
暂无
卫星简介
Starlink 计划是 SpaceX 推出的全球卫星互联网项目,通过发射低轨道卫星,为全球尤其是偏远地区提供高速、低延迟的互联网服务。自 2019 年起,Starlink 已部署数千颗卫星,旨在缩小全球数字鸿沟,推动互联网普及。该项目还为军事、航空等行业提供通信支持,带来广泛经济效益。
2D轨道图
3D轨道图
轨道高度分析图
轨道倾角分析图
轨道综合分析图
查看轨道综合分析图
交会数据列表
事件ID 空间交会对象 最接近时刻(TCA) 交会距离 交会风险概率(CRP) 交会风险指数(CRI) 操作
CDM_260906-233605-859406-734021
2026-09-06T
23:36:38+0000
0.586 km
远距离
7.10249E-5 中风险 0.72
CDM_260903-095306-324106-734024
2026-09-03T
09:53:47+0000
1.558 km
极远距离
5.785425E-6 低风险 0.5
CDM_260907-011005-859406-734021
2026-09-07T
01:10:47+0000
1.643 km
极远距离
2.495373E-6 低风险 0.43
CDM_260905-010701-387406-734021
SSC (13874)
2026-09-05T
01:07:55+0000
2.046 km
极远距离
2.377946E-6 低风险 0.43
CDM_260903-104006-324106-734024
2026-09-03T
10:40:53+0000
2.914 km
极远距离
1.357705E-6 低风险 0.38
CDM_260907-042305-650806-734021
2026-09-07T
04:23:29+0000
1.618 km
极远距离
1.240451E-6 低风险 0.37
CDM_260906-220205-859406-734021
2026-09-06T
22:02:29+0000
2.757 km
极远距离
8.181573E-7 极低风险 0.33